Weather History for Grove, OK

Change the Weather History Date:

Wednesday, July 10, 2013

  Actual Average (KSLG) Record (KSLG)
Temperature  
Mean Temperature 86 °F -  
Max Temperature 98 °F 84 °F 102 °F (2011)
Min Temperature 75 °F 66 °F 57 °F (1996)
Cooling Degree Days 22    
Growing Degree Days 36 (Base 50)    
Moisture  
Dew Point 68 °F    
Average Humidity 55    
Maximum Humidity 83    
Minimum Humidity 34    
Precipitation  
Precipitation 0.00 in - - ()
Sea Level Pressure  
Sea Level Pressure 29.99 in    
Wind  
Wind Speed 3 mph (South)    
Max Wind Speed 13 mph    
Max Gust Speed -    
Visibility 10 miles    
Events      
Averages and records for this station are not official NWS values.
T = Trace of Precipitation, MM = Missing Value Source: NWS Daily Summary

Daily Weather History Graph

Daily Weather History Graph

Search for Another Location

Airport:

Trip Planner

Search our weather history database for the weather conditions in past years. The results will help you decide how hot, cold, wet, or windy it might be!

Date:

Astronomy

Jul. 10, 2013 Rise Set
Actual Time 6:09 AM CDT 8:39 PM CDT
Civil Twilight 5:39 AM CDT 9:09 PM CDT
Nautical Twilight 5:01 AM CDT 9:46 PM CDT
Astronomical Twilight 4:20 AM CDT 10:27 PM CDT
Moon 8:25 AM CDT (7/10) 9:55 PM CDT (7/10)
Length of Visible Light 15h 30m
Length of Day
14h 30m
Waxing Crescent, 5% of the Moon is Illuminated
Jul 10
Waxing Crescent
Jul 15
First Quarter
Jul 22
Full
Jul 29
Last Quarter
Aug 6
New

Hourly Weather History & Observations

Time (CDT) Temp. Heat Index Dew Point Humidity Pressure Visibility Wind Dir Wind Speed Gust Speed Precip Events Conditions
12:15 AM 82.4 °F 86.3 °F 69.8 °F 66% 30.01 in 7.0 mi South 4.6 mph - N/A   Clear
12:35 AM 80.6 °F 83.9 °F 69.8 °F 70% 30.02 in 7.0 mi South 4.6 mph - N/A   Clear
12:55 AM 80.6 °F 83.9 °F 69.8 °F 70% 30.01 in 7.0 mi South 5.8 mph - N/A   Clear
1:15 AM 80.6 °F 83.9 °F 69.8 °F 70% 30.01 in 7.0 mi South 4.6 mph - N/A   Clear
1:35 AM 80.6 °F 83.9 °F 69.8 °F 70% 30.01 in 7.0 mi South 4.6 mph - N/A   Clear
1:55 AM 82.4 °F 85.4 °F 68.0 °F 62% 30.00 in 5.0 mi South 6.9 mph - N/A   Haze
2:15 AM 82.4 °F 85.4 °F 68.0 °F 62% 30.00 in 10.0 mi SSW 5.8 mph - N/A   Clear
2:55 AM 82.4 °F 85.4 °F 68.0 °F 62% 30.00 in 10.0 mi Calm Calm - N/A   Clear
3:15 AM 82.4 °F 85.4 °F 68.0 °F 62% 30.01 in 10.0 mi Calm Calm - N/A   Mostly Cloudy
3:35 AM 82.4 °F 85.4 °F 68.0 °F 62% 30.01 in 10.0 mi Calm Calm - N/A   Mostly Cloudy
3:55 AM 80.6 °F 83.2 °F 68.0 °F 65% 30.01 in 10.0 mi Calm Calm - N/A   Scattered Clouds
4:15 AM 80.6 °F 83.2 °F 68.0 °F 65% 30.02 in 10.0 mi Calm Calm - N/A   Clear
4:35 AM 80.6 °F 83.2 °F 68.0 °F 65% 30.01 in 10.0 mi SSW 3.5 mph - N/A   Clear
4:55 AM 78.8 °F - 68.0 °F 69% 30.01 in 10.0 mi Calm Calm - N/A   Clear
5:15 AM 77.0 °F - 69.8 °F 78% 30.01 in 10.0 mi Calm Calm - N/A   Clear
5:35 AM 77.0 °F - 69.8 °F 78% 30.01 in 10.0 mi Calm Calm - N/A   Clear
5:55 AM 77.0 °F - 69.8 °F 78% 30.01 in 10.0 mi SE 4.6 mph - N/A   Clear
6:15 AM 77.0 °F - 69.8 °F 78% 30.02 in 10.0 mi Calm Calm - N/A   Scattered Clouds
6:35 AM 75.2 °F - 69.8 °F 83% 30.03 in 10.0 mi Calm Calm - N/A   Mostly Cloudy
6:55 AM 77.0 °F - 69.8 °F 78% 30.03 in 10.0 mi East 3.5 mph - N/A   Mostly Cloudy
7:15 AM 77.0 °F - 69.8 °F 78% 30.03 in 10.0 mi SE 3.5 mph - N/A   Scattered Clouds
7:35 AM 77.0 °F - 69.8 °F 78% 30.02 in 10.0 mi SE 5.8 mph - N/A   Clear
7:55 AM 78.8 °F - 69.8 °F 74% 30.02 in 10.0 mi SE 4.6 mph - N/A   Clear
8:15 AM 78.8 °F - 69.8 °F 74% 30.02 in 10.0 mi SE 5.8 mph - N/A   Clear
8:35 AM 80.6 °F 83.9 °F 69.8 °F 70% 30.00 in 10.0 mi SSE 8.1 mph - N/A   Clear
8:55 AM 86.0 °F 89.4 °F 68.0 °F 55% 30.00 in 10.0 mi South 9.2 mph - N/A   Clear
9:15 AM 86.0 °F 88.2 °F 66.2 °F 51% 30.00 in 10.0 mi South 12.7 mph - N/A   Clear
9:35 AM 87.8 °F 91.4 °F 68.0 °F 52% 30.01 in 10.0 mi SSW 9.2 mph - N/A   Clear
9:55 AM 87.8 °F 90.4 °F 66.2 °F 49% 30.01 in 10.0 mi South 6.9 mph - N/A   Clear
10:15 AM 89.6 °F 92.2 °F 66.2 °F 46% 30.02 in 10.0 mi SSW 5.8 mph - N/A   Clear
10:35 AM 89.6 °F 93.4 °F 68.0 °F 49% 30.01 in 10.0 mi South 5.8 mph - N/A   Clear
10:55 AM 89.6 °F 93.4 °F 68.0 °F 49% 30.01 in 7.0 mi South 6.9 mph - N/A   Clear
11:15 AM 91.4 °F 95.4 °F 68.0 °F 46% 30.02 in 10.0 mi WSW 4.6 mph - N/A   Clear
11:35 AM 91.4 °F 95.4 °F 68.0 °F 46% 30.03 in 10.0 mi West 3.5 mph - N/A   Clear
11:55 AM 91.4 °F 95.4 °F 68.0 °F 46% 30.03 in 10.0 mi West 4.6 mph - N/A   Clear
12:15 PM 93.2 °F 97.7 °F 68.0 °F 44% 30.02 in 10.0 mi WNW 4.6 mph - N/A   Clear
12:35 PM 93.2 °F 94.9 °F 64.4 °F 38% 30.02 in 10.0 mi Calm Calm - N/A   Clear
12:55 PM 95.0 °F 97.0 °F 64.4 °F 36% 30.02 in 10.0 mi West 4.6 mph - N/A   Clear
1:15 PM 95.0 °F 97.0 °F 64.4 °F 36% 30.01 in 10.0 mi Calm Calm - N/A   Clear
1:35 PM 95.0 °F 97.0 °F 64.4 °F 36% 30.00 in 10.0 mi Calm Calm - N/A   Clear
1:55 PM 95.0 °F 97.0 °F 64.4 °F 36% 30.00 in 10.0 mi Calm Calm - N/A   Clear
2:15 PM 96.8 °F 100.7 °F 66.2 °F 37% 29.99 in 10.0 mi Calm Calm - N/A   Clear
2:35 PM 96.8 °F 100.7 °F 66.2 °F 37% 29.99 in 10.0 mi SSE 4.6 mph - N/A   Clear
2:55 PM 96.8 °F 99.0 °F 64.4 °F 34% 29.98 in 10.0 mi Calm Calm - N/A   Clear
3:15 PM 98.6 °F 102.8 °F 66.2 °F 35% 29.98 in 10.0 mi Calm Calm - N/A   Clear
3:35 PM 98.6 °F 102.8 °F 66.2 °F 35% 29.98 in 10.0 mi SE 4.6 mph - N/A   Clear
3:55 PM 98.6 °F 102.8 °F 66.2 °F 35% 29.96 in 10.0 mi SSW 3.5 mph - N/A   Clear
4:15 PM 98.6 °F 102.8 °F 66.2 °F 35% 29.96 in 10.0 mi Calm Calm - N/A   Clear
4:35 PM 98.6 °F 102.8 °F 66.2 °F 35% 29.95 in 10.0 mi Calm Calm - N/A   Clear
4:55 PM 98.6 °F 102.8 °F 66.2 °F 35% 29.94 in 10.0 mi SSW 3.5 mph - N/A   Clear
5:15 PM 98.6 °F 104.1 °F 68.0 °F 37% 29.93 in 10.0 mi WNW 4.6 mph - N/A   Clear
5:35 PM 98.6 °F 104.1 °F 68.0 °F 37% 29.92 in 10.0 mi NNW 5.8 mph - N/A   Clear
5:55 PM 98.6 °F 104.1 °F 68.0 °F 37% 29.92 in 10.0 mi NNW 6.9 mph - N/A   Clear
6:15 PM 98.6 °F 102.8 °F 66.2 °F 35% 29.93 in 10.0 mi NNW 5.8 mph - N/A   Clear
6:35 PM 98.6 °F 102.8 °F 66.2 °F 35% 29.93 in 10.0 mi NW 5.8 mph - N/A   Clear
6:55 PM 96.8 °F 100.7 °F 66.2 °F 37% 29.93 in 10.0 mi Calm Calm - N/A   Clear
7:15 PM 95.0 °F 99.5 °F 68.0 °F 41% 29.93 in 10.0 mi Calm Calm - N/A   Clear
7:35 PM 95.0 °F 99.5 °F 68.0 °F 41% 29.93 in 10.0 mi Calm Calm - N/A   Clear
7:55 PM 95.0 °F 101.3 °F 69.8 °F 44% 29.93 in 10.0 mi Calm Calm - N/A   Clear
8:15 PM 91.4 °F 98.4 °F 71.6 °F 52% 29.93 in 10.0 mi Calm Calm - N/A   Clear
8:35 PM 89.6 °F 98.2 °F 73.4 °F 59% 29.93 in 10.0 mi Calm Calm - N/A   Clear
8:55 PM 87.8 °F 95.6 °F 73.4 °F 62% 29.93 in 10.0 mi Calm Calm - N/A   Clear
9:15 PM 86.0 °F 91.8 °F 71.6 °F 62% 29.94 in 10.0 mi Calm Calm - N/A   Clear
9:35 PM 86.0 °F 91.8 °F 71.6 °F 62% 29.96 in 7.0 mi Calm Calm - N/A   Clear
9:55 PM 86.0 °F 91.8 °F 71.6 °F 62% 29.96 in 7.0 mi Calm Calm - N/A   Clear
10:15 PM 84.2 °F 89.6 °F 71.6 °F 66% 29.97 in 10.0 mi Calm Calm - N/A   Clear
10:35 PM 82.4 °F 87.2 °F 71.6 °F 70% 29.98 in 10.0 mi Calm Calm - N/A   Clear
10:55 PM 82.4 °F 88.2 °F 73.4 °F 74% 29.99 in 10.0 mi NE 3.5 mph - N/A   Clear
11:15 PM 82.4 °F 87.2 °F 71.6 °F 70% 29.99 in 10.0 mi ENE 3.5 mph - N/A   Clear
11:35 PM 82.4 °F 87.2 °F 71.6 °F 70% 29.99 in 10.0 mi NE 5.8 mph - N/A   Scattered Clouds
11:55 PM 82.4 °F 88.2 °F 73.4 °F 74% 29.98 in 10.0 mi NE 5.8 mph - N/A   Clear